| time (UTC) | temp F | wind direction | speed knots | gust knots | rain 1hr in | rain 24hr in | rain mn in | humidity % | barometer mb |
| 20260508115606 | 56 | 339 | 7.0 | 9.6 | 0.00 | 0.00 | 0.00 | 22 | 1022.9 |
| 20260508114128 | 57 | 333 | 5.2 | 10.4 | 0.00 | 0.00 | 0.00 | 23 | 1022.9 |
| 20260508112951 | 57 | 1 | 4.3 | 7.0 | 0.00 | 0.00 | 0.00 | 25 | 1023.1 |
| 20260508111813 | 57 | 335 | 5.2 | 9.6 | 0.00 | 0.00 | 0.00 | 23 | 1023.0 |
| 20260508110648 | 57 | 27 | 4.3 | 13.0 | 0.00 | 0.00 | 0.00 | 24 | 1023.0 |
| 20260508105718 | 56 | 336 | 5.2 | 11.3 | 0.00 | 0.00 | 0.00 | 26 | 1022.9 |
| 20260508105003 | 55 | 342 | 8.7 | 13.9 | 0.00 | 0.00 | 0.00 | 25 | 1022.9 |
| 20260508103618 | 56 | 31 | 5.2 | 13.0 | 0.00 | 0.00 | 0.00 | 26 | 1023.0 |
| 20260508102601 | 55 | 4 | 6.1 | 11.3 | 0.00 | 0.00 | 0.00 | 26 | 1022.9 |
| 20260508101718 | 56 | 8 | 5.2 | 10.4 | 0.00 | 0.00 | 0.00 | 28 | 1023.0 |
| 20260508100738 | 56 | 359 | 1.7 | 5.2 | 0.00 | 0.00 | 0.00 | 29 | 1023.0 |
| 20260508095918 | 56 | 19 | 3.5 | 7.8 | 0.00 | 0.00 | 0.00 | 28 | 1023.0 |
| 20260508094911 | 55 | 18 | 5.2 | 8.7 | 0.00 | 0.00 | 0.00 | 30 | 1023.0 |
| 20260508093443 | 55 | 340 | 2.6 | 6.1 | 0.00 | 0.00 | 0.00 | 32 | 1022.8 |
| 20260508092913 | 54 | 8 | 6.1 | 12.2 | 0.00 | 0.00 | 0.00 | 32 | 1022.8 |
| 20260508091638 | 53 | 358 | 5.2 | 9.6 | 0.00 | 0.00 | 0.00 | 32 | 1022.8 |
| 20260508090718 | 54 | 338 | 1.7 | 5.2 | 0.00 | 0.00 | 0.00 | 34 | 1022.9 |
| 20260508090008 | 53 | 352 | 4.3 | 12.2 | 0.00 | 0.00 | 0.00 | 34 | 1022.8 |
| 20260508084523 | 52 | 332 | 8.7 | 14.8 | 0.00 | 0.00 | 0.00 | 33 | 1022.8 |
| 20260508083758 | 53 | 343 | 6.1 | 9.6 | 0.00 | 0.00 | 0.00 | 33 | 1022.9 |
| 20260508082658 | 53 | 358 | 5.2 | 10.4 | 0.00 | 0.00 | 0.00 | 35 | 1022.8 |
| 20260508081558 | 52 | 7 | 3.5 | 7.0 | 0.00 | 0.00 | 0.00 | 35 | 1022.8 |
| 20260508080823 | 52 | 339 | 7.0 | 13.0 | 0.00 | 0.00 | 0.00 | 35 | 1022.7 |
| 20260508075931 | 52 | 358 | 3.5 | 9.6 | 0.00 | 0.00 | 0.00 | 36 | 1022.7 |
| 20260508074758 | 51 | 0 | 6.1 | 12.2 | 0.00 | 0.00 | 0.00 | 36 | 1022.7 |
| 20260508073951 | 51 | 7 | 5.2 | 10.4 | 0.00 | 0.00 | 0.00 | 35 | 1022.5 |
| 20260508072708 | 51 | 332 | 5.2 | 8.7 | 0.00 | 0.00 | 0.00 | 39 | 1022.6 |
| 20260508071711 | 50 | 334 | 7.8 | 13.9 | 0.00 | 0.00 | 0.00 | 38 | 1022.4 |
| 20260508071201 | 50 | 334 | 7.0 | 12.2 | 0.00 | 0.00 | 0.00 | 39 | 1022.4 |
| 20260508065938 | 50 | 340 | 7.8 | 14.8 | 0.00 | 0.00 | 0.00 | 39 | 1022.3 |
| 20260508064548 | 49 | 339 | 6.1 | 10.4 | 0.00 | 0.00 | 0.00 | 41 | 1022.3 |
| 20260508063824 | 49 | 332 | 6.1 | 11.3 | 0.00 | 0.00 | 0.00 | 42 | 1022.2 |
| 20260508063141 | 48 | 342 | 5.2 | 7.8 | 0.00 | 0.00 | 0.00 | 43 | 1022.1 |
| 20260508062048 | 48 | 341 | 7.8 | 11.3 | 0.00 | 0.00 | 0.00 | 44 | 1021.9 |
| 20260508060722 | 47 | 340 | 6.1 | 9.6 | 0.00 | 0.00 | 0.00 | 46 | 1021.7 |
| 20260508055504 | 47 | 340 | 7.8 | 13.9 | 0.00 | 0.00 | 0.00 | 47 | 1021.6 |
| 20260508054548 | 47 | 329 | 3.5 | 7.0 | 0.00 | 0.00 | 0.00 | 49 | 1021.7 |
| 20260508053348 | 46 | 340 | 4.3 | 13.0 | 0.00 | 0.00 | 0.00 | 49 | 1021.4 |
| 20260508051909 | 45 | 334 | 4.3 | 7.8 | 0.00 | 0.00 | 0.00 | 52 | 1021.3 |
| 20260508051114 | 45 | 340 | 4.3 | 10.4 | 0.00 | 0.00 | 0.00 | 52 | 1021.2 |
| 20260508050013 | 44 | 334 | 6.1 | 10.4 | 0.00 | 0.00 | 0.00 | 54 | 1021.0 |
| 20260508044551 | 44 | 339 | 4.3 | 9.6 | 0.00 | 0.00 | 0.00 | 55 | 1020.9 |
| 20260508043628 | 43 | 341 | 7.0 | 10.4 | 0.00 | 0.00 | 0.00 | 55 | 1020.7 |
| 20260508043048 | 43 | 337 | 5.2 | 9.6 | 0.00 | 0.00 | 0.00 | 56 | 1020.7 |
| 20260508041659 | 42 | 336 | 5.2 | 9.6 | 0.00 | 0.00 | 0.00 | 57 | 1020.6 |
| 20260508040413 | 42 | 327 | 3.5 | 7.0 | 0.00 | 0.00 | 0.00 | 58 | 1020.5 |
| 20260508035139 | 41 | 344 | 4.3 | 7.0 | 0.00 | 0.00 | 0.00 | 58 | 1020.3 |
| 20260508033651 | 40 | 337 | 3.5 | 7.0 | 0.00 | 0.00 | 0.00 | 59 | 1020.1 |
| 20260508032644 | 40 | 344 | 3.5 | 7.0 | 0.00 | 0.00 | 0.00 | 59 | 1020.0 |
| 20260508031943 | 40 | 336 | 2.6 | 6.1 | 0.00 | 0.00 | 0.00 | 59 | 1020.0 |
| 20260508030521 | 40 | 327 | 4.3 | 7.0 | 0.00 | 0.00 | 0.00 | 59 | 1019.8 |
| 20260508025736 | 40 | 338 | 5.2 | 7.8 | 0.00 | 0.00 | 0.00 | 59 | 1019.7 |
| 20260508024443 | 39 | 325 | 4.3 | 7.8 | 0.00 | 0.00 | 0.00 | 60 | 1019.6 |
| 20260508023204 | 39 | 341 | 3.5 | 6.1 | 0.00 | 0.00 | 0.00 | 60 | 1019.3 |
| 20260508022306 | 39 | 329 | 3.5 | 6.1 | 0.00 | 0.00 | 0.00 | 59 | 1019.2 |
| 20260508021703 | 40 | 344 | 2.6 | 4.3 | 0.00 | 0.00 | 0.00 | 59 | 1019.1 |
| 20260508020528 | 40 | 318 | 3.5 | 6.1 | 0.00 | 0.00 | 0.00 | 59 | 1019.0 |
| 20260508015203 | 40 | 324 | 4.3 | 7.8 | 0.00 | 0.00 | 0.00 | 57 | 1018.8 |
| 20260508014231 | 41 | 326 | 5.2 | 9.6 | 0.00 | 0.00 | 0.00 | 57 | 1018.6 |
| 20260508012928 | 41 | 334 | 6.1 | 11.3 | 0.00 | 0.00 | 0.00 | 56 | 1018.4 |
| 20260508012418 | 41 | 332 | 5.2 | 9.6 | 0.00 | 0.00 | 0.00 | 56 | 1018.4 |
| 20260508011751 | 41 | 337 | 7.0 | 12.2 | 0.00 | 0.00 | 0.00 | 55 | 1018.3 |
| 20260508010306 | 42 | 339 | 6.1 | 10.4 | 0.00 | 0.00 | 0.00 | 54 | 1018.2 |
| 20260508005518 | 42 | 335 | 5.2 | 9.6 | 0.00 | 0.00 | 0.00 | 54 | 1018.1 |
| 20260508004706 | 42 | 341 | 7.0 | 11.3 | 0.00 | 0.00 | 0.00 | 54 | 1018.0 |
| 20260508003641 | 42 | 328 | 5.2 | 10.4 | 0.00 | 0.00 | 0.00 | 53 | 1017.9 |
| 20260508002721 | 42 | 339 | 6.1 | 10.4 | 0.00 | 0.00 | 0.00 | 53 | 1017.7 |
| 20260508001651 | 43 | 344 | 6.1 | 10.4 | 0.00 | 0.00 | 0.00 | 53 | 1017.7 |
| 20260508000733 | 43 | 331 | 5.2 | 7.8 | 0.00 | 0.00 | 0.00 | 52 | 1017.6 |
| 20260507235441 | 43 | 336 | 7.0 | 9.6 | 0.00 | 0.00 | 0.00 | 51 | 1017.4 |
| 20260507234429 | 43 | 335 | 5.2 | 8.7 | 0.00 | 0.00 | 0.00 | 51 | 1017.3 |
| 20260507233108 | 43 | 327 | 5.2 | 10.4 | 0.00 | 0.00 | 0.00 | 50 | 1017.1 |
| 20260507232006 | 44 | 339 | 6.1 | 9.6 | 0.00 | 0.00 | 0.00 | 50 | 1017.0 |
| 20260507231119 | 44 | 335 | 6.1 | 11.3 | 0.00 | 0.00 | 0.00 | 50 | 1016.8 |
| 20260507230118 | 44 | 341 | 6.1 | 11.3 | 0.00 | 0.00 | 0.00 | 49 | 1016.7 |
| 20260507225058 | 44 | 330 | 6.1 | 9.6 | 0.00 | 0.00 | 0.00 | 49 | 1016.5 |
| 20260507224318 | 44 | 323 | 5.2 | 11.3 | 0.00 | 0.00 | 0.00 | 48 | 1016.5 |
| 20260507223103 | 44 | 332 | 4.3 | 7.8 | 0.00 | 0.00 | 0.00 | 48 | 1016.4 |
| 20260507222551 | 44 | 332 | 5.2 | 9.6 | 0.00 | 0.00 | 0.00 | 47 | 1016.4 |
| 20260507221901 | 44 | 330 | 4.3 | 7.0 | 0.00 | 0.00 | 0.00 | 46 | 1016.3 |
| 20260507220741 | 45 | 325 | 5.2 | 9.6 | 0.00 | 0.00 | 0.00 | 45 | 1016.2 |
| 20260507215551 | 45 | 320 | 5.2 | 10.4 | 0.00 | 0.00 | 0.00 | 44 | 1016.1 |
| 20260507214814 | 45 | 331 | 5.2 | 7.8 | 0.00 | 0.00 | 0.00 | 44 | 1016.0 |
| 20260507213358 | 45 | 322 | 4.3 | 7.0 | 0.00 | 0.00 | 0.00 | 43 | 1015.8 |
| 20260507212751 | 45 | 329 | 4.3 | 7.0 | 0.00 | 0.00 | 0.00 | 43 | 1015.7 |
| 20260507211601 | 45 | 324 | 4.3 | 7.8 | 0.00 | 0.00 | 0.00 | 42 | 1015.5 |
| 20260507210551 | 46 | 329 | 3.5 | 7.0 | 0.00 | 0.00 | 0.00 | 42 | 1015.4 |
| 20260507205849 | 46 | 321 | 3.5 | 7.0 | 0.00 | 0.00 | 0.00 | 41 | 1015.3 |
| 20260507205141 | 46 | 331 | 4.3 | 7.0 | 0.00 | 0.00 | 0.00 | 41 | 1015.3 |
| 20260507204538 | 46 | 329 | 4.3 | 7.0 | 0.00 | 0.00 | 0.00 | 41 | 1015.2 |
| 20260507203633 | 46 | 321 | 3.5 | 6.1 | 0.00 | 0.00 | 0.00 | 41 | 1015.0 |
| 20260507202951 | 46 | 329 | 4.3 | 7.0 | 0.00 | 0.00 | 0.00 | 41 | 1014.9 |
| 20260507202036 | 46 | 328 | 3.5 | 7.0 | 0.00 | 0.00 | 0.00 | 41 | 1014.8 |
| 20260507201438 | 46 | 319 | 3.5 | 7.0 | 0.00 | 0.00 | 0.00 | 42 | 1014.8 |
| 20260507200103 | 45 | 324 | 2.6 | 4.3 | 0.00 | 0.00 | 0.00 | 43 | 1014.5 |
| 20260507194813 | 45 | 308 | 0.9 | 1.7 | 0.00 | 0.00 | 0.00 | 46 | 1014.4 |
| 20260507193858 | 46 | 310 | 0.9 | 1.7 | 0.00 | 0.00 | 0.00 | 43 | 1014.3 |
| 20260507192823 | 46 | 301 | 0.9 | 1.7 | 0.00 | 0.00 | 0.00 | 38 | 1014.2 |
| 20260507192221 | 47 | 279 | 0.9 | 2.6 | 0.00 | 0.00 | 0.00 | 37 | 1014.1 |
| 20260507191501 | 47 | 297 | 0.9 | 1.7 | 0.00 | 0.00 | 0.00 | 38 | 1014.0 |
| 20260507190209 | 48 | 280 | 0.9 | 2.6 | 0.00 | 0.00 | 0.00 | 35 | 1013.9 |
| 20260507185648 | 48 | 272 | 1.7 | 2.6 | 0.00 | 0.00 | 0.00 | 34 | 1013.9 |
| 20260507184741 | 48 | 226 | 0.9 | 2.6 | 0.00 | 0.00 | 0.00 | 36 | 1013.8 |
| 20260507183338 | 49 | 218 | 2.6 | 4.3 | 0.00 | 0.00 | 0.00 | 35 | 1013.7 |
| 20260507182031 | 49 | 220 | 1.7 | 5.2 | 0.00 | 0.00 | 0.00 | 35 | 1013.6 |
| 20260507181528 | 49 | 236 | 2.6 | 7.0 | 0.00 | 0.00 | 0.00 | 34 | 1013.5 |
| 20260507180732 | 50 | 222 | 2.6 | 5.2 | 0.00 | 0.00 | 0.00 | 35 | 1013.5 |
| 20260507175841 | 50 | 229 | 3.5 | 6.1 | 0.00 | 0.00 | 0.00 | 36 | 1013.4 |
| 20260507174709 | 50 | 217 | 1.7 | 4.3 | 0.00 | 0.00 | 0.00 | 38 | 1013.4 |
| 20260507173733 | 50 | 214 | 1.7 | 4.3 | 0.00 | 0.00 | 0.00 | 37 | 1013.4 |
| 20260507172351 | 50 | 203 | 2.6 | 4.3 | 0.00 | 0.00 | 0.00 | 36 | 1013.3 |
| 20260507171328 | 50 | 220 | 4.3 | 8.7 | 0.00 | 0.00 | 0.00 | 36 | 1013.3 |
| 20260507170633 | 50 | 210 | 4.3 | 7.8 | 0.00 | 0.00 | 0.00 | 36 | 1013.2 |
| 20260507170034 | 50 | 238 | 1.7 | 6.1 | 0.00 | 0.00 | 0.00 | 35 | 1013.3 |
| 20260507164859 | 50 | 213 | 6.1 | 8.7 | 0.00 | 0.00 | 0.00 | 37 | 1013.2 |
| 20260507163958 | 50 | 233 | 2.6 | 5.2 | 0.00 | 0.00 | 0.00 | 41 | 1013.3 |
| 20260507162751 | 49 | 211 | 2.6 | 7.0 | 0.00 | 0.00 | 0.00 | 43 | 1013.2 |
| 20260507161601 | 49 | 200 | 6.1 | 9.6 | 0.00 | 0.00 | 0.00 | 41 | 1013.0 |
| 20260507161022 | 49 | 208 | 4.3 | 10.4 | 0.00 | 0.00 | 0.00 | 43 | 1013.0 |
| 20260507160414 | 50 | 205 | 4.3 | 8.7 | 0.00 | 0.00 | 0.00 | 44 | 1013.0 |
| 20260507155351 | 51 | 208 | 2.6 | 5.2 | 0.00 | 0.00 | 0.00 | 42 | 1013.0 |
| 20260507153951 | 51 | 220 | 0.9 | 2.6 | 0.00 | 0.00 | 0.00 | 46 | 1012.9 |
| 20260507152759 | 51 | 183 | 0.9 | 3.5 | 0.00 | 0.00 | 0.00 | 47 | 1012.9 |
| 20260507151409 | 51 | 195 | 2.6 | 7.8 | 0.00 | 0.00 | 0.00 | 41 | 1012.9 |
| 20260507150606 | 52 | 181 | 1.7 | 5.2 | 0.00 | 0.00 | 0.00 | 43 | 1012.9 |
| 20260507145251 | 52 | 204 | 2.6 | 6.1 | 0.00 | 0.00 | 0.00 | 40 | 1012.9 |
| 20260507143849 | 53 | 196 | 1.7 | 7.0 | 0.00 | 0.00 | 0.00 | 39 | 1012.9 |
| 20260507142709 | 53 | 175 | 0.9 | 4.3 | 0.00 | 0.00 | 0.00 | 50 | 1012.9 |
| 20260507141242 | 54 | 181 | 0.9 | 3.5 | 0.00 | 0.00 | 0.00 | 48 | 1012.8 |
| 20260507140403 | 54 | 158 | 1.7 | 7.0 | 0.00 | 0.00 | 0.00 | 43 | 1012.7 |
| 20260507135536 | 54 | 192 | 2.6 | 6.1 | 0.00 | 0.00 | 0.00 | 26 | 1012.6 |
| 20260507135019 | 53 | 188 | 5.2 | 9.6 | 0.00 | 0.00 | 0.00 | 25 | 1012.6 |
| 20260507134032 | 55 | 187 | 1.7 | 5.2 | 0.00 | 0.00 | 0.00 | 26 | 1012.6 |
| 20260507132749 | 56 | 152 | 2.6 | 6.1 | 0.00 | 0.00 | 0.00 | 25 | 1012.6 |
| 20260507131729 | 57 | 190 | 1.7 | 4.3 | 0.00 | 0.00 | 0.00 | 25 | 1012.6 |
| 20260507130922 | 57 | 190 | 1.7 | 4.3 | 0.00 | 0.00 | 0.00 | 25 | 1012.6 |
| 20260507130259 | 56 | 176 | 1.7 | 4.3 | 0.00 | 0.00 | 0.00 | 25 | 1012.6 |
| 20260507125139 | 56 | 166 | 0.9 | 3.5 | 0.00 | 0.00 | 0.00 | 29 | 1012.5 |
| 20260507124034 | 55 | 200 | 1.7 | 6.1 | 0.00 | 0.00 | 0.00 | 29 | 1012.6 |
| 20260507123404 | 55 | 188 | 1.7 | 5.2 | 0.00 | 0.00 | 0.00 | 29 | 1012.6 |
| 20260507122536 | 55 | 160 | 0.9 | 2.6 | 0.00 | 0.00 | 0.00 | 35 | 1012.6 |
| 20260507121102 | 55 | 172 | 1.7 | 3.5 | 0.00 | 0.00 | 0.00 | 35 | 1012.6 |
| 20260507120429 | 54 | 167 | 1.7 | 4.3 | 0.00 | 0.00 | 0.00 | 37 | 1012.6 |